RADUGA-1 7 [-]

Last updated on Aug. 14, 2020, 5:30 a.m. UTC

1 28194U 04010A   20226.12718131  .00000134  00000-0  00000-0 0  9993
2 28194  11.1812  36.5760 0000552 297.9935  68.9298  1.00202317 60018
UTC
Height (km)
Latitude
Longitude
Inclination
Orbital Period
UTC large
Height (km)
Speed (km/s)
/
Latitude / Longitude
Inclination (degrees)
Orbital Period (minutes)
Azimuth
Elevation
Range (km)
Doppler Factor
iOS Compass Heading
iOS Angle

Next 30 passes for location: Hong Kong

Rise time Rise Azimuth (degrees) Set time Set Azimuth (degrees) Duration Max altitude (degrees)

No matching passes for this satellites